Waseca, MN

8:34 PM CDT on August 19, 2017 (GMT -0500)
Waseca Municipal

Weather History for KACQ - January, 2013

Change the Weather History Date:

Wednesday, January 9, 2013

  Actual Average Record
Temperature  
Mean Temperature 32 °F -  
Max Temperature 37 °F 17 °F 47 °F (1990)
Min Temperature 26 °F -2 °F -33 °F (1977)
Degree Days  
Heating Degree Days 34    
Moisture  
Dew Point 24 °F    
Average Humidity 73    
Maximum Humidity 81    
Minimum Humidity 60    
Precipitation  
Precipitation 0.00 in - - ()
Sea Level Pressure  
Sea Level Pressure 30.23 in    
Wind  
Wind Speed 11 mph (SW)    
Max Wind Speed 17 mph    
Max Gust Speed 23 mph    
Visibility 10 miles    
Events Snow    
Averages and records for this station are not official NWS values.
T = Trace of Precipitation, MM = Missing Value Source: NWS Daily Summary

Daily Weather History Graph

Daily Weather History Graph

Search for Another Location

Airport or City:

Trip Planner

Search our weather history database for the weather conditions in past years. The results will help you decide how hot, cold, wet, or windy it might be!

Date:

Astronomy

Jan. 09, 2013 Rise Set
Actual Time 7:48 AM CST 4:55 PM CST
Civil Twilight 7:15 AM CST 5:27 PM CST
Nautical Twilight 6:39 AM CST 6:03 PM CST
Astronomical Twilight 6:04 AM CST 6:38 PM CST
Moon 5:28 AM CST (1/9) 2:57 PM CST (1/9)
Length of Visible Light 10h 11m
Length of Day
9h 06m
Waning Crescent, 6% of the Moon is Illuminated
Jan 9
Waning Crescent
Jan 11
New
Jan 18
First Quarter
Jan 26
Full
Feb 3
Last Quarter

Hourly Weather History & Observations

Time (CST) Temp. Windchill Dew Point Humidity Pressure Visibility Wind Dir Wind Speed Gust Speed Precip Events Conditions
12:14 AM 32.0 °F 24.2 °F 26.6 °F 80% 29.97 in 10.0 mi SW 9.2 mph - N/A   Mostly Cloudy
12:34 AM 32.0 °F 23.0 °F 26.6 °F 80% 29.97 in 10.0 mi SW 11.5 mph - N/A   Mostly Cloudy
12:54 AM 32.0 °F 23.6 °F 26.6 °F 80% 29.98 in 10.0 mi SW 10.4 mph - N/A   Mostly Cloudy
1:14 AM 32.0 °F 24.2 °F 26.6 °F 80% 29.99 in 10.0 mi WSW 9.2 mph - N/A   Mostly Cloudy
1:34 AM 32.0 °F 24.2 °F 26.6 °F 80% 30.00 in 10.0 mi WSW 9.2 mph - N/A   Mostly Cloudy
1:54 AM 32.0 °F 24.2 °F 26.6 °F 80% 30.00 in 10.0 mi SW 9.2 mph - N/A Snow Light Snow
2:14 AM 33.8 °F 27.0 °F 28.4 °F 81% 30.01 in 10.0 mi SW 8.1 mph - N/A   Mostly Cloudy
2:34 AM 30.2 °F 21.3 °F 23.0 °F 75% 30.01 in 10.0 mi SSW 10.4 mph - N/A   Scattered Clouds
2:54 AM 28.4 °F 19.1 °F 23.0 °F 80% 30.02 in 10.0 mi SSW 10.4 mph - N/A   Clear
3:14 AM 28.4 °F 19.1 °F 23.0 °F 80% 30.03 in 10.0 mi SW 10.4 mph - N/A   Clear
3:34 AM 30.2 °F 20.2 °F 24.8 °F 80% 30.03 in 10.0 mi SW 12.7 mph - N/A   Clear
3:54 AM 32.0 °F 23.6 °F 26.6 °F 80% 30.04 in 10.0 mi SW 10.4 mph - N/A   Clear
4:14 AM 30.2 °F 20.2 °F 24.8 °F 80% 30.05 in 10.0 mi SSW 12.7 mph - N/A   Clear
4:34 AM 30.2 °F 20.8 °F 24.8 °F 80% 30.06 in 10.0 mi SW 11.5 mph - N/A   Clear
4:54 AM 30.2 °F 20.8 °F 24.8 °F 80% 30.07 in 10.0 mi SW 11.5 mph - N/A   Clear
5:14 AM 28.4 °F 19.1 °F 23.0 °F 80% 30.08 in 10.0 mi SW 10.4 mph - N/A   Clear
5:34 AM 30.2 °F 19.3 °F 24.8 °F 80% 30.08 in 10.0 mi WSW 15.0 mph - N/A   Clear
6:14 AM 32.0 °F 21.6 °F 26.6 °F 80% 30.11 in 10.0 mi West 15.0 mph - N/A   Clear
6:34 AM 32.0 °F 22.1 °F 24.8 °F 75% 30.12 in 10.0 mi West 13.8 mph - N/A   Clear
6:54 AM 32.0 °F 22.5 °F 24.8 °F 75% 30.12 in 10.0 mi West 12.7 mph - N/A   Clear
7:15 AM 32.0 °F 22.1 °F 24.8 °F 75% 30.13 in 10.0 mi West 13.8 mph - N/A   Clear
7:35 AM 32.0 °F 21.6 °F 23.0 °F 69% 30.14 in 10.0 mi West 15.0 mph - N/A   Clear
7:54 AM 32.0 °F 20.8 °F 23.0 °F 69% 30.16 in 10.0 mi West 17.3 mph - N/A   Clear
8:14 AM 32.0 °F 22.1 °F 23.0 °F 69% 30.16 in 10.0 mi West 13.8 mph 20.7 mph N/A   Clear
8:35 AM 32.0 °F 22.1 °F 23.0 °F 69% 30.18 in 10.0 mi West 13.8 mph 20.7 mph N/A   Clear
8:54 AM 33.8 °F 23.2 °F 24.8 °F 70% 30.18 in 10.0 mi West 17.3 mph 23.0 mph N/A   Clear
9:14 AM 33.8 °F 23.2 °F 23.0 °F 65% 30.20 in 10.0 mi WNW 17.3 mph 23.0 mph N/A   Clear
9:34 AM 33.8 °F 23.5 °F 23.0 °F 65% 30.20 in 10.0 mi WNW 16.1 mph 21.9 mph N/A   Clear
9:54 AM 33.8 °F 23.9 °F 23.0 °F 65% 30.22 in 10.0 mi WNW 15.0 mph 23.0 mph N/A   Clear
10:14 AM 33.8 °F 23.2 °F 23.0 °F 65% 30.23 in 10.0 mi WNW 17.3 mph 23.0 mph N/A   Clear
10:34 AM 33.8 °F 23.5 °F 23.0 °F 65% 30.26 in 10.0 mi West 16.1 mph - N/A   Clear
10:54 AM 33.8 °F 23.2 °F 23.0 °F 65% 30.27 in 10.0 mi West 17.3 mph - N/A   Clear
11:15 AM 33.8 °F 24.3 °F 23.0 °F 65% 30.27 in 10.0 mi West 13.8 mph - N/A   Clear
11:34 AM 35.6 °F 26.2 °F 23.0 °F 60% 30.28 in 10.0 mi West 15.0 mph - N/A   Clear
11:55 AM 35.6 °F 26.2 °F 23.0 °F 60% 30.29 in 10.0 mi West 15.0 mph - N/A   Clear
12:14 PM 35.6 °F 25.5 °F 24.8 °F 65% 30.30 in 10.0 mi WSW 17.3 mph - N/A   Clear
12:34 PM 35.6 °F 25.5 °F 26.6 °F 70% 30.30 in 10.0 mi WSW 17.3 mph - N/A   Clear
12:55 PM 35.6 °F 25.9 °F 26.6 °F 70% 30.32 in 10.0 mi WSW 16.1 mph - N/A   Clear
1:14 PM 35.6 °F 26.6 °F 26.6 °F 70% 30.32 in 10.0 mi WSW 13.8 mph - N/A   Clear
1:34 PM 35.6 °F 26.6 °F 24.8 °F 65% 30.35 in 10.0 mi WSW 13.8 mph - N/A   Clear
1:55 PM 37.4 °F 28.9 °F 26.6 °F 65% 30.36 in 10.0 mi WSW 13.8 mph 18.4 mph N/A   Clear
2:14 PM 37.4 °F 28.9 °F 26.6 °F 65% 30.37 in 10.0 mi WSW 13.8 mph - N/A   Clear
2:34 PM 37.4 °F 28.5 °F 28.4 °F 70% 30.38 in 10.0 mi SW 15.0 mph 20.7 mph N/A   Clear
2:55 PM 35.6 °F 26.6 °F 26.6 °F 70% 30.38 in 10.0 mi SW 13.8 mph - N/A   Clear
3:14 PM 35.6 °F 28.0 °F 26.6 °F 70% 30.37 in 10.0 mi SW 10.4 mph - N/A   Clear
3:34 PM 35.6 °F 28.6 °F 26.6 °F 70% 30.38 in 10.0 mi SW 9.2 mph - N/A   Clear
3:55 PM 35.6 °F 29.9 °F 26.6 °F 70% 30.37 in 10.0 mi SW 6.9 mph - N/A   Clear
4:14 PM 33.8 °F 28.6 °F 26.6 °F 75% 30.37 in 10.0 mi SSW 5.8 mph - N/A   Clear
4:34 PM 33.8 °F - 26.6 °F 75% 30.36 in 10.0 mi Calm Calm - N/A   Clear
4:54 PM 33.8 °F - 26.6 °F 75% 30.35 in 10.0 mi Calm Calm - N/A   Clear
5:14 PM 32.0 °F 28.7 °F 23.0 °F 69% 30.35 in 10.0 mi South 3.5 mph - N/A   Clear
5:34 PM 28.4 °F 23.3 °F 21.2 °F 74% 30.35 in 10.0 mi SSE 4.6 mph - N/A   Clear
5:55 PM 28.4 °F 23.3 °F 21.2 °F 74% 30.34 in 10.0 mi ESE 4.6 mph - N/A   Clear
6:14 PM 28.4 °F 22.2 °F 23.0 °F 80% 30.35 in 10.0 mi SE 5.8 mph - N/A   Clear
6:34 PM 28.4 °F 23.3 °F 21.2 °F 74% 30.35 in 10.0 mi ESE 4.6 mph - N/A   Clear
6:55 PM 26.6 °F 19.1 °F 19.4 °F 74% 30.35 in 10.0 mi SE 6.9 mph - N/A   Clear
7:14 PM 28.4 °F 20.4 °F 23.0 °F 80% 30.35 in 10.0 mi SE 8.1 mph - N/A   Clear
7:55 PM 28.4 °F 20.4 °F 23.0 °F 80% 30.34 in 10.0 mi SE 8.1 mph - N/A   Clear
8:14 PM 30.2 °F 26.7 °F 23.0 °F 75% 30.35 in 10.0 mi SSE 3.5 mph - N/A   Clear
8:35 PM 26.6 °F 21.2 °F 21.2 °F 80% 30.35 in 10.0 mi SSE 4.6 mph - N/A   Clear
8:54 PM 28.4 °F 23.3 °F 21.2 °F 74% 30.33 in 10.0 mi ESE 4.6 mph - N/A   Clear
9:14 PM 26.6 °F 22.6 °F 21.2 °F 80% 30.32 in 10.0 mi SE 3.5 mph - N/A   Clear
9:35 PM 28.4 °F 22.2 °F 21.2 °F 74% 30.31 in 10.0 mi SE 5.8 mph - N/A   Clear
9:54 PM 28.4 °F 21.2 °F 21.2 °F 74% 30.32 in 10.0 mi SSE 6.9 mph - N/A   Clear
10:14 PM 28.4 °F 20.4 °F 21.2 °F 74% 30.32 in 10.0 mi South 8.1 mph - N/A   Clear
10:34 PM 30.2 °F 20.8 °F 23.0 °F 75% 30.32 in 10.0 mi South 11.5 mph - N/A   Clear
10:54 PM 32.0 °F 21.6 °F 26.6 °F 80% 30.32 in 10.0 mi South 15.0 mph 18.4 mph N/A   Clear
11:14 PM 33.8 °F 23.2 °F 26.6 °F 75% 30.32 in 10.0 mi SSE 17.3 mph - N/A   Clear
11:34 PM 33.8 °F 23.5 °F 26.6 °F 75% 30.32 in 10.0 mi SSE 16.1 mph - N/A   Clear
11:54 PM 33.8 °F 23.9 °F 26.6 °F 75% 30.32 in 10.0 mi South 15.0 mph - N/A   Clear